Find Praetorian SDA-619

NORAD ID: 65582 Int'l Des: 2025-203 Owner: SDA Country: US operational
LEOCIRCULARPOLAR

リアルタイム位置

3D地球を読み込み中...

Praetorian SDA-619について

説明を読み込み中...

次回通過

Passes for default location (London). Set your location on the main map for personalized predictions.

高度履歴

Loading altitude history...

軌道要素

1 65582U 25203T 26106.27095121 .00000183 00000-0 15420-3 0 9997
2 65582 81.3032 68.0834 0008369 7.4338 352.6941 13.83936211 30768
Epoch: Apr 16, 2026 • Age: 11 hours

現在のステータス

高度 964.6 km
速度 7.37 km/s
衛星直下点 -23.62°S, 138.15°E
打ち上げ日 Sep 10, 2025
運用期間 0.5 years
タイプ other

技術仕様

分類 Payload
質量 300.00 kg
乾燥質量 300.00 kg
総質量 300.00 kg
長さ 1.00 m
直径 0.60 m
スパン 2.00 m
形状 Box + panels
製造者 YORKSS
バスタイプ S-Class
フェーズステータス In Orbit
所有者/国 SDA/US

Most Searched